STARLINK-4184, 52852

Orbit data source: Space-Track

STARLINK-4184, 52852 is a payload satellite owned by SpaceX/Seattle (US) in LEO that was launched on Fri, 17 Jun 2022 UTC via an FALCON 9 launch vehicle from the Air Force Eastern Test Range (AFETR). Payload-class satellites include a variety of spacecraft equipped with specific instruments for various scientific and technological missions. These include communications satellites like Starlink; space stations such as the ISS; scientific satellites like the Hubble; Earth observation satellites from companies like Planet Labs, Umbra, and HawkEye 360; GPS; miniature CubeSats for education and research; and military/defense satellites.

Loading next visibility...
Identifier
52852, 2022-062Y
Orbit
LEO
Country
Flag of USUS
Related business
Manufacturer
SpaceX/Seattle
Mission
Operational Commercial Communications
Bus & Motor
STARLINK, Unknown motor
Mass
297 kg wet, ~275 kg dry
Launch date (UTC)
2022-06-17 (3 years ago)
Launch vehicle
FALCON 9
Launch site
Air Force Eastern Test Range (AFETR)
Object type
Payload
Rocket body
Debris
Shape & HBR
Box + 1 Pan, 10.1 m
Radar Cross Section
13.562 m², Large (>1 m²)

Expand to show TLE details & history
Last TLE update: 1 day ago

TLE from 1 day ago
0 STARLINK-4184
1 52852U 22062Y   25348.59206828  .00001791  00000-0  13064-3 0  9991
2 52852  53.2175  46.1387 0001412  97.0228 263.0925 15.08828293193075
Epoch: 2025-12-14T14:12Z
TLE epoch observation values (Epoch: 2025-12-14T14:12:34.699Z)
Latitude
-0°
Longitude
109.49134°
Altitude
540.794 km
Speed
7.593 km/s
True Right ascension
03h 04m 33s
True Declination
0° 00' 00"
Sunlit
Object was in full shadow at epoch
Visualization orbit readout
Latitude
Unknown
Longitude
Unknown
Altitude
Unknown
Speed
Unknown
Apparent Right ascension
Unknown
Apparent Declination
Unknown
Sunlit
N/A
Visualization observer readout
Local Sidereal Time
13:19:02
Azimuth
Unknown
Elevation
Unknown
Doppler factor
Unknown
Orbital elements
Apogee altitude
541.001 km
Perigee altitude
539.047 km
Semi-major axis
6,918.161 km
Eccentricity
0.00014
Inclination
53.2175°
RAAN
46.1387°
Arg. of periapsis
97.0228°
True anomaly
263.07644°
Mean anomaly
263.0925°
Eccentric anomaly
263.08447°
Mean motion
3.77187 °/min
Orbital period
95.44 mins
BSTAR
0.00013064
Loading maneuver chart data...
Computing Atmospheric mass density...
Loading historical data...
Loading historical data...
Loading historical data...
Loading historical data...
Loading historical data...
Loading historical data...
Loading historical data...

Documentation

Showing up to 5 results
|